SCP
1 1 1 0 0 1 1 1 1 0 0 0 0 0 0 0 0 0 0 0 0 0 0 0 0 0 0 0 0 0 0 0 0 0 0 0 0 0 0 0 0 0 0
1 1 1 1 1 1 1 1 0 0 0 0 0 0 0 0 0 0 0 0 0 0 0 0 0 0 0 0 0 0 0 0 0 0 0 0 0 0 0 0 0 0 0
1 1 1 1 1 1 1 0 0 0 0 0 0 0 0 0 0 0 0 0 0 0 0 0 0 0 0 0 0 0 0 0 0 0 0 0 0 0 0 0 0 0 0
1 1 1 1 1 1 0 0 0 0 0 0 0 0 0 0 0 0 0 0 0 0 0 0 0 0 0 0 0 0 0 0 0 0 0 0 0 0 0 0 0 0 0
1 1 1 1 1 1 0 0 0 0 0 0 0 0 0 0 0 0 0 0 0 0 0 0 0 0 0 0 0 0 0 0 0 0 0 0 0 0 0 0 0 0 0
1 1 1 1 1 0 0 0 0 0 0 0 0 0 0 0 0 0 0 0 0 0 0 0 0 0 0 0 0 0 0 0 0 0 0 0 0 0 0 0 0 0 0
1 1 1 1 0 0 0 0 0 0 0 0 0 0 0 0 0 0 0 0 0 0 0 0 0 0 0 0 0 0 0 0 0 0 0 0 0 0 0 0 0 0 0
1 1 1 1 1 1 1 1 0 0 0 0 0 0 0 0 0 0 0 0 0 0 0 0 0 0 0 0 0 0 0 0 0 0 0 0 0 0 0 0 0 0 0
1 1 2 2 2 1 1 1 1 1 1 0 0 0 0 0 0 0 0 0 0 0 0 0 0 0 0 0 0 0 0 0 0 0 0 0 0 0 0 0 0 0 0
2 2 3 3 3 2 1 1 1 1 1 1 0 0 0 0 0 0 0 0 0 0 0 0 0 0 0 0 0 0 0 0 0 0 0 0 0 0 0 0 0 0 0
2 2 3 4 4 3 2 1 1 2 2 1 1 0 0 0 0 0 0 0 0 0 0 0 0 0 0 0 0 0 0 0 0 0 0 0 0 0 0 0 0 0 0
2 2 3 3 3 2 2 2 2 2 2 1 1 0 0 0 0 0 0 0 0 0 0 0 0 0 0 0 0 0 0 0 0 0 0 0 0 0 0 0 0 0 0
3 2 2 3 2 2 1 2 2 2 2 1 1 1 1 0 0 0 0 0 0 0 0 0 0 0 0 0 0 0 0 0 0 0 0 0 0 0 0 0 0 0 0
3 3 3 2 2 1 1 2 2 2 2 2 1 1 1 0 0 0 0 0 0 0 0 0 0 0 0 0 0 0 0 0 0 0 0 0 0 0 0 0 0 0 0
3 3 3 2 2 1 1 1 2 2 2 2 1 1 0 0 0 0 0 0 0 0 0 0 0 0 0 0 0 0 0 0 0 0 0 0 0 0 0 0 0 0 0
3 3 2 2 2 1 1 1 1 1 1 1 0 0 0 0 0 0 0 0 0 0 0 0 0 0 0 0 0 0 0 0 0 0 0 0 0 0 0 0 0 0 0
3 3 2 2 2 1 1 1 0 0 0 0 0 0 0 0 0 0 0 0 0 0 0 0 0 0 0 0 0 0 0 0 0 0 0 0 0 0 0 0 0 0 0
3 2 2 2 1 1 1 1 0 0 0 0 0 0 0 0 0 0 0 0 0 0 0 0 0 0 0 0 0 0 0 0 0 0 0 0 0 0 0 0 0 0 0
2 2 1 1 1 1 1 0 0 0 0 0 0 0 0 0 0 0 0 0 0 0 0 0 0 0 0 0 0 0 0 0 0 0 0 0 0 0 0 0 0 0 0
2 1 1 1 0 0 0 0 0 0 0 0 0 0 0 0 0 0 0 0 0 0 0 0 0 0 0 0 0 0 0 0 0 0 0 0 0 0 0 0 0 0 0
1 1 1 0 0 0 0 0 0 0 0 0 0 0 0 0 0 0 0 0 0 0 0 0 0 0 0 0 0 0 0 0 0 0 0 0 0 0 0 0 0 0 0
1 1 0 0 0 0 0 0 0 0 0 0 0 0 0 0 0 0 0 0 0 0 0 0 0 0 0 0 0 0 0 0 0 0 0 0 0 0 0 0 0 0 0
0 0 0 0 0 0 0 0 0 0 0 0 0 0 0 0 0 0 0 0 0 0 0 0 0 0 0 0 0 0 0 0 0 0 0 0 0 0 0 0 0 0 0
0 0 0 0 0 0 0 0 0 0 0 0 0 0 0 0 0 0 0 0 0 0 0 0 0 0 0 0 0 0 0 0 0 0 0 0 0 0 0 0 0 0 0
0 0 0 0 0 0 0 0 0 0 0 0 0 0 0 0 0 0 0 0 0 0 0 0 0 0 0 0 0 0 0 0 0 0 0 0 0 0 0 0 0 0 0
0 0 0 0 0 0 0 0 0 0 0 0 0 0 0 0 0 0 0 0 0 0 0 0 0 0 0 0 0 0 0 0 0 0 0 0 0 0 0 0 0 0 0
Wind_Speed
9 7 8 7 7 7 7 7 7 6 6 6 6 5 5 4 4 4 3 3 3 1 1 2 1 1 1 1 1 1 1 2 2 3 2 3 3 4 4 4 4 4 4
9 8 8 7 7 7 7 7 7 7 6 6 6 5 5 5 4 4 4 3 3 3 2 2 2 1 1 0 0 0 1 1 2 3 3 3 3 4 4 4 4 3 3
10 9 9 8 8 8 7 7 7 7 6 6 6 6 5 5 5 4 4 4 4 4 4 4 3 3 2 2 2 2 1 1 1 2 3 2 3 3 3 4 4 3 4
10 10 10 9 9 8 8 7 7 7 7 6 6 6 5 5 5 5 4 4 4 4 4 4 4 4 4 4 3 3 2 1 1 1 2 3 3 3 2 2 4 3 4
11 11 10 9 8 8 8 8 7 7 8 7 6 5 5 5 5 5 5 5 4 4 4 4 4 6 7 6 4 4 3 2 2 2 3 3 3 3 3 2 3 4 4
13 12 10 9 9 9 9 8 8 7 6 6 6 6 6 5 7 9 7 4 4 4 4 4 4 5 7 8 9 8 7 5 4 3 3 4 5 4 4 3 3 3 4
13 12 11 11 11 10 10 9 9 8 7 6 7 7 6 7 10 10 10 5 5 5 5 4 4 4 5 4 6 7 8 10 10 6 6 7 6 5 4 4 4 5 6
13 13 12 12 11 10 9 9 9 7 7 7 7 7 6 8 12 12 11 6 4 5 5 6 5 6 5 5 4 5 6 7 8 7 7 9 8 7 6 6 6 5 6
14 13 13 13 12 11 11 10 9 7 7 7 6 7 7 8 12 13 10 4 4 6 6 5 6 6 8 8 5 5 7 7 9 11 12 12 13 13 9 4 4 3 5
16 15 13 13 13 13 12 10 7 7 8 7 7 7 8 7 10 13 12 4 5 5 4 5 7 8 9 8 6 6 7 9 7 6 7 9 9 10 11 8 7 6 5
13 12 12 13 12 11 10 8 7 7 7 7 7 6 7 8 10 13 13 6 6 5 4 4 5 8 9 9 8 7 10 9 6 6 6 7 6 6 6 7 7 7 7
10 11 12 12 11 10 9 8 8 8 7 7 6 6 5 7 9 11 14 14 9 6 6 5 5 8 9 9 7 9 12 9 5 5 5 6 7 7 7 7 8 9 10
10 10 10 10 10 9 10 9 7 7 7 6 6 6 5 4 5 10 12 13 13 8 6 7 8 9 8 7 10 12 9 5 4 5 6 8 7 7 6 5 6 7 8
10 9 8 8 7 7 7 7 7 7 7 6 6 6 4 3 4 4 4 5 8 7 6 6 8 9 7 8 8 7 5 5 5 6 7 7 5 5 5 5 6 5 5
9 8 8 7 8 7 6 6 7 7 8 8 6 6 5 5 7 9 6 4 4 5 3 2 2 2 3 4 4 5 4 4 5 5 5 6 6 6 6 5 5 4 5
7 6 5 5 5 5 5 3 4 4 7 8 7 6 5 7 7 8 8 7 7 6 4 2 3 4 5 5 5 5 4 5 5 5 5 5 6 6 6 5 4 5 7
6 6 4 4 4 4 4 5 3 1 1 4 5 6 6 5 6 7 7 6 5 6 2 3 4 5 5 5 5 5 5 5 4 4 5 5 5 5 5 6 5 5 6
5 6 5 4 4 4 4 4 4 3 2 0 2 4 5 6 6 6 6 4 2 2 3 4 5 5 5 5 5 5 5 5 4 4 5 5 5 5 5 5 5 6 6
5 4 4 4 3 3 3 4 4 4 3 2 1 0 2 2 3 3 5 2 3 3 4 4 5 5 5 5 5 5 5 5 5 4 5 5 5 4 5 5 6 8 7
3 5 5 4 4 4 4 4 4 3 3 2 2 1 2 2 1 2 3 3 3 4 4 4 4 4 4 4 4 4 4 4 4 4 5 5 5 4 5 7 6 6 6
3 4 5 4 4 4 4 3 3 3 3 2 2 3 4 3 3 3 3 3 4 4 4 4 4 3 3 3 3 4 4 4 4 4 4 5 5 4 5 5 6 6 6
3 3 3 3 2 3 3 2 2 2 2 2 1 1 3 2 2 2 2 3 3 3 3 3 3 3 3 3 3 3 4 4 4 4 5 5 5 5 5 5 6 6 6
4 4 3 2 2 3 2 2 2 2 2 2 1 1 1 1 1 1 2 2 2 2 2 2 2 3 3 3 3 3 4 4 4 4 5 5 5 5 6 6 7 7 7
3 3 2 2 2 2 2 1 2 2 2 1 1 1 1 1 0 1 1 1 2 2 2 2 3 4 5 3 3 3 3 3 4 4 5 5 6 6 6 7 7 8 7
2 2 2 2 2 2 2 2 2 2 2 2 1 0 0 0 0 1 1 1 2 2 3 3 3 3 4 4 3 3 3 4 4 4 4 5 7 7 7 8 7 7 7
3 3 3 3 3 3 3 2 2 2 1 1 1 1 1 1 1 2 2 2 2 3 4 3 4 4 4 3 3 4 4 4 5 5 4 5 6 7 7 7 9 8 8
Wind_Direction
159 153 149 155 151 148 150 155 153 150 150 153 155 154 156 157 154 147 155 157 151 164 156 146 170 158 101 33 56 78 109 140 206 281 279 291 306 308 309 299 283 276 276
163 156 158 158 154 154 157 158 154 155 159 159 155 156 164 166 166 166 174 170 174 184 190 173 201 177 178 220 176 247 232 185 184 267 292 300 296 297 296 298 299 295 283
164 162 163 164 165 166 166 162 160 161 163 162 158 164 173 173 175 179 178 181 186 193 191 191 206 185 210 225 220 230 246 243 188 221 275 282 288 300 319 314 312 311 302
169 169 171 176 175 173 168 166 169 168 167 170 173 176 180 180 181 187 187 191 199 204 201 202 206 201 210 218 223 227 228 241 238 243 271 284 285 292 311 303 311 307 302
172 175 180 179 176 172 171 173 173 173 176 174 175 182 184 184 192 190 192 195 201 218 226 225 226 224 221 218 215 214 207 216 234 246 265 282 285 293 280 269 279 289 287
178 183 180 175 176 178 178 177 176 179 178 176 182 185 191 201 199 193 184 186 196 207 225 241 249 247 244 238 234 222 206 206 217 225 242 249 261 257 257 258 264 290 293
182 183 182 180 181 184 182 176 181 185 182 184 191 190 196 207 200 198 196 188 201 214 222 230 244 243 239 240 250 250 241 234 221 210 228 242 247 243 243 260 253 244 250
185 186 185 183 184 183 181 183 187 184 187 191 196 197 198 211 206 206 204 199 210 225 226 225 233 248 248 232 237 251 255 253 242 228 229 242 244 242 230 238 248 258 263
188 188 187 185 184 184 188 190 188 184 191 195 196 196 201 214 209 208 200 197 221 239 240 233 232 241 248 239 230 247 264 269 262 247 240 246 252 256 248 243 251 250 270
192 190 186 184 185 188 191 191 186 187 195 195 201 203 206 215 214 210 200 195 222 241 251 249 242 241 246 242 223 232 254 265 269 277 267 267 263 264 257 230 229 238 251
187 183 183 185 186 187 187 184 181 184 188 195 205 213 213 215 216 213 204 200 214 228 239 245 243 241 243 246 235 228 243 256 267 264 269 273 272 265 259 242 226 224 235
173 177 182 184 186 187 182 184 184 182 187 199 209 225 226 220 216 216 211 212 212 214 231 238 241 246 249 254 250 248 255 262 259 263 267 270 269 267 263 256 246 236 233
170 179 182 184 187 180 179 185 183 185 192 202 207 221 228 223 222 223 218 217 217 218 238 245 252 260 264 264 261 263 265 251 242 250 259 262 258 259 264 266 266 257 252
170 176 177 177 181 179 179 181 183 190 196 201 206 214 220 222 220 216 213 218 220 227 247 262 269 270 264 260 269 271 253 238 234 245 255 261 266 267 264 259 263 268 270
172 175 175 178 178 181 184 188 188 196 195 196 204 200 201 221 227 209 195 199 200 210 205 244 270 276 276 273 271 269 264 254 247 247 252 264 269 269 269 264 256 260 259
156 160 164 166 167 170 172 175 187 184 195 200 203 200 212 216 212 206 205 207 205 189 172 217 244 250 256 263 267 271 268 259 253 253 255 257 262 266 272 270 258 256 262
145 150 152 156 158 160 157 161 164 164 185 208 211 213 214 209 200 198 199 194 187 164 184 236 246 251 255 257 258 259 264 265 260 256 257 259 260 264 267 269 266 264 264
125 130 133 140 146 149 154 160 159 155 147 225 238 217 216 210 201 197 182 152 168 186 222 242 252 255 254 254 255 256 262 269 266 262 261 262 261 263 265 265 264 264 269
116 121 122 124 128 131 133 132 133 142 152 157 118 94 202 186 173 179 163 180 219 234 237 244 249 253 254 254 255 257 259 263 264 264 265 263 261 260 263 265 266 269 268
99 110 116 119 115 113 120 128 137 145 149 153 160 179 149 124 152 195 196 213 230 246 252 253 253 250 252 257 260 262 266 267 269 266 266 268 267 263 266 270 268 268 266
80 83 85 92 104 116 123 136 148 149 153 168 198 201 172 171 194 209 209 216 223 234 242 246 249 252 251 254 259 263 266 268 267 270 270 268 268 270 269 267 266 265 267
70 71 75 83 89 98 113 127 133 137 153 174 217 226 193 181 184 203 221 227 228 233 236 232 240 247 251 255 261 267 272 275 277 278 279 279 275 272 271 270 270 269 268
75 75 74 77 87 96 95 97 111 128 144 160 165 147 145 167 205 232 248 249 248 255 257 247 249 264 263 256 250 248 258 266 268 274 281 281 278 275 273 271 271 273 272
82 89 97 92 85 88 96 99 102 109 121 119 107 108 122 154 213 263 274 282 289 286 277 265 258 266 271 271 267 262 260 272 282 274 271 276 280 279 277 274 270 269 271
64 70 81 90 100 105 101 88 79 80 83 86 92 92 29 11 311 301 297 300 305 298 293 283 272 273 277 280 278 284 293 293 289 288 282 275 277 278 280 280 277 274 271
53 58 65 75 81 84 86 79 72 70 65 63 65 57 37 10 340 322 319 318 312 305 301 297 296 297 299 294 289 293 287 284 286 286 282 276 275 277 281 282 282 279 277